ECMWFFLT1_925_spd_039.txt.gz
Wind_Speed
24 24 23 23 22 22 22 23 23 24 25 25 26 28 27 24 22 22 24 27 30 29 29 32 31 29 29 29 28 28 27 27 28 27 27 27 28 27 26 26 21 12 9 12 15 16 17 20 22 22 26 32 34 35 35 33 34 36 37 39 41 41 41
23 22 22 22 22 21 21 21 23 26 26 26 25 24 21 18 18 20 21 23 27 30 30 30 29 28 29 30 29 28 27 27 27 25 26 27 27 26 25 25 24 17 11 10 14 16 15 16 21 23 25 29 31 32 33 33 32 32 33 34 36 38 39
20 20 19 19 19 19 19 20 22 23 23 21 20 18 17 17 18 18 19 21 20 24 29 28 26 27 29 29 29 29 27 26 26 24 24 25 26 27 25 24 25 20 13 11 13 17 17 17 21 24 25 27 29 29 30 31 31 31 31 31 31 33 35
20 20 20 20 20 20 21 21 20 19 19 19 18 17 18 19 18 18 20 22 20 20 25 28 27 26 27 26 26 25 24 23 23 23 26 27 27 27 25 22 23 23 18 14 12 15 19 20 22 24 24 25 27 27 27 27 27 28 30 31 30 30 31
20 20 21 22 21 21 22 22 21 22 24 25 23 20 19 20 20 20 22 23 22 21 21 25 28 27 27 26 24 22 22 21 21 23 26 27 25 23 22 20 21 22 22 18 13 12 17 20 20 21 22 24 27 27 24 23 24 25 26 26 27 28 29
21 21 22 22 22 22 23 23 23 24 27 28 27 24 23 23 21 21 22 24 25 23 20 21 27 29 28 26 25 22 21 20 21 22 23 22 21 20 19 18 18 20 21 19 16 12 14 18 20 19 19 22 27 28 26 24 22 22 23 24 24 25 26
22 23 22 23 23 23 23 24 24 26 28 30 30 29 29 27 23 21 22 25 26 24 21 20 22 27 27 26 25 24 21 21 21 21 21 20 20 19 17 16 17 19 20 19 17 14 13 17 21 20 18 20 23 25 25 25 22 20 22 24 25 26 27
22 22 21 22 22 22 22 22 23 25 27 30 30 30 30 30 27 25 26 29 29 25 21 19 18 21 26 27 26 25 23 22 21 19 20 20 20 18 17 16 16 17 19 19 18 16 14 17 19 18 16 17 19 18 20 26 28 26 27 27 26 27 27
21 20 20 20 20 20 20 21 21 23 26 28 29 29 30 31 31 28 26 28 30 25 21 19 18 19 22 25 24 23 21 21 21 20 19 19 20 18 17 17 16 17 18 17 17 16 14 14 14 15 15 17 21 23 22 24 27 25 26 27 25 25 26
20 20 21 21 22 22 22 22 24 25 25 26 26 27 28 28 28 26 22 23 27 26 22 20 19 18 18 19 20 19 20 20 21 23 22 21 21 20 19 18 17 17 17 16 15 14 13 11 10 14 19 21 25 29 23 20 23 21 20 22 19 18 24
21 22 23 23 24 24 25 25 26 25 24 25 25 25 25 24 23 22 20 20 23 25 25 22 21 19 17 17 17 18 20 20 21 23 24 24 23 23 22 21 18 17 17 16 15 14 13 12 12 16 23 24 24 26 23 22 26 23 21 22 17 11 17
23 24 24 24 24 24 25 26 25 23 23 24 24 24 24 23 22 21 21 20 20 22 24 23 22 21 19 19 18 18 19 20 21 22 23 24 25 25 26 25 23 21 18 16 16 14 12 14 15 18 24 26 24 24 24 23 24 25 26 26 21 14 16
25 24 24 23 24 24 25 25 24 22 22 23 24 24 24 23 23 22 22 21 20 21 23 24 23 22 22 21 20 20 20 20 21 22 23 24 25 26 27 28 29 27 22 19 18 16 14 17 19 19 23 28 28 27 25 21 20 25 29 27 24 23 22
26 25 24 23 23 24 25 24 22 20 20 21 23 23 23 24 25 24 23 23 22 22 24 26 24 23 24 24 22 22 22 21 21 22 23 23 24 25 27 28 29 29 26 22 21 20 20 21 23 23 25 29 29 28 27 25 25 28 30 27 25 24 23
27 26 25 24 23 23 23 23 21 20 19 20 21 22 23 25 26 26 26 25 24 25 26 27 26 25 26 25 24 24 23 22 22 22 22 22 23 25 27 27 28 28 26 25 23 23 23 23 24 25 26 27 28 29 30 30 30 30 28 25 21 18 18
28 27 27 27 24 22 22 22 21 19 19 19 19 20 23 27 28 26 26 26 25 25 26 27 28 27 27 27 27 26 25 23 21 21 21 22 23 25 25 25 27 27 26 26 25 24 23 23 23 24 25 26 26 28 29 26 23 23 23 20 15 13 16
30 28 28 28 25 23 23 24 21 19 19 18 17 18 18 22 29 26 24 26 26 25 25 27 28 29 29 29 29 28 26 22 20 21 21 21 23 24 23 23 25 26 25 25 25 25 23 21 22 23 24 24 24 26 29 24 19 21 23 19 12 9 13
31 30 28 27 25 24 23 23 21 18 18 19 17 18 19 12 22 26 23 23 24 23 23 26 28 30 30 31 31 29 26 22 21 22 23 23 23 23 22 23 25 25 24 24 24 24 21 18 19 20 21 21 22 25 28 27 24 24 23 18 12 10 10
29 29 28 26 25 25 23 22 21 18 17 18 17 16 17 12 7 15 18 21 22 23 24 25 26 28 29 30 30 28 25 23 22 23 24 24 22 21 23 26 26 24 24 23 23 22 20 17 16 17 18 19 20 22 26 28 27 26 25 20 15 13 11
27 27 27 27 25 25 24 23 21 19 16 17 17 15 13 12 7 2 4 8 12 16 20 23 24 26 27 29 29 28 26 24 23 24 25 25 23 22 24 25 24 24 23 23 23 22 20 18 16 16 17 18 19 21 23 25 25 25 27 23 18 17 15
26 25 27 29 26 25 25 24 22 20 16 15 15 14 11 10 7 4 5 4 3 5 9 12 15 18 22 24 26 27 27 25 23 23 25 26 27 28 26 23 22 24 22 21 23 23 22 21 19 18 19 20 20 21 22 23 24 25 25 24 21 20 19
26 25 27 29 28 26 26 25 23 20 16 14 14 12 11 9 7 5 5 7 8 8 8 8 9 10 12 15 17 19 22 22 22 23 25 28 30 31 27 23 22 23 21 20 20 20 21 21 20 21 22 21 21 22 22 22 24 24 23 23 23 21 21
26 25 26 27 28 27 27 25 22 18 13 12 12 10 9 9 7 6 7 8 11 11 10 10 11 12 13 14 14 15 17 19 21 23 24 26 28 29 28 25 23 21 21 20 18 17 19 21 22 23 23 22 21 21 21 20 21 22 21 22 22 21 21
24 23 23 24 25 26 26 24 20 14 10 10 11 9 7 7 8 8 9 10 13 12 11 11 11 11 11 12 14 15 16 18 20 21 22 23 25 28 29 26 23 21 21 20 20 19 19 20 22 23 22 22 22 21 21 21 20 20 20 20 20 19 19
23 22 22 22 23 24 25 22 17 11 8 10 10 7 5 5 6 8 9 9 10 11 11 12 12 11 10 11 12 14 15 17 19 20 21 20 21 25 28 27 25 23 21 20 21 22 21 19 21 23 23 24 24 22 22 21 19 18 18 18 18 17 17
21 21 21 21 22 24 23 19 15 12 11 11 9 5 2 2 1 2 4 5 7 7 8 8 8 9 9 10 11 12 13 15 18 19 20 19 17 21 26 28 27 24 22 21 22 22 20 18 19 23 25 25 25 24 22 22 21 19 18 18 18 16 14
19 19 20 21 22 24 22 18 15 14 13 12 10 7 6 6 5 4 2 2 2 2 2 3 3 5 6 7 9 10 11 13 14 16 18 19 18 19 22 26 29 29 27 26 25 23 21 21 22 25 27 27 26 25 25 23 23 22 21 20 19 17 15
19 20 22 23 24 24 21 16 14 14 13 13 12 11 11 10 9 7 6 5 3 2 1 2 3 3 3 4 5 5 5 5 7 9 12 15 17 19 20 22 25 28 29 28 25 24 24 26 26 27 28 28 25 25 26 26 25 25 24 23 21 18 16
21 22 25 26 26 24 17 12 14 15 14 13 12 12 11 10 10 9 7 5 3 1 1 2 3 4 3 3 3 3 3 3 2 2 4 7 10 14 17 19 20 22 23 24 25 27 29 29 27 25 26 25 23 24 27 28 26 27 26 23 20 18 18
22 25 27 28 29 27 21 16 16 16 15 14 13 11 10 10 9 8 7 6 3 2 4 6 7 7 7 6 6 6 6 6 6 6 5 4 5 7 11 15 18 19 21 24 26 28 31 31 27 24 23 23 23 25 27 27 26 28 27 22 19 19 18
25 26 27 28 29 28 26 23 22 19 17 16 14 12 12 11 9 8 9 7 5 5 8 9 8 8 8 8 8 8 7 7 6 7 8 8 7 7 7 10 13 16 21 25 25 25 27 28 26 25 24 23 23 24 25 24 24 24 23 19 19 20 20
26 27 28 28 27 26 25 25 23 21 19 17 15 13 12 11 10 9 8 7 6 9 10 9 8 8 8 8 8 8 7 7 7 8 8 10 10 10 8 8 9 12 17 21 22 21 21 21 21 23 24 24 24 24 23 22 22 21 20 18 17 17 18
28 28 27 27 27 26 25 23 23 22 20 17 15 13 12 11 12 12 11 9 9 11 11 9 9 9 8 8 8 8 8 8 8 9 11 12 12 12 11 10 10 11 13 16 17 19 20 20 21 22 22 22 21 21 21 21 20 19 18 18 18 17 16
31 29 27 27 27 26 25 23 23 24 22 18 17 14 12 13 15 16 16 16 15 14 12 11 10 10 9 8 8 8 8 8 9 11 12 12 12 12 11 10 10 12 13 15 16 17 19 21 22 22 23 22 19 17 17 18 18 17 17 18 19 19 18
29 29 26 26 26 26 24 23 23 24 22 20 19 17 15 17 20 21 21 20 18 16 13 12 11 10 9 8 8 7 7 8 9 10 11 11 10 10 10 10 11 12 13 14 16 17 18 19 20 21 22 23 22 20 18 17 16 16 17 18 19 21 20
24 25 24 25 27 27 24 22 23 23 23 22 22 20 21 23 23 22 20 20 18 16 14 13 12 10 9 8 8 7 7 7 7 8 8 8 8 7 8 9 10 11 13 14 15 16 17 18 19 19 20 21 21 19 18 18 18 18 19 20 20 21 21

ECMWFFLT1_925_spd_042.txt.gz
Wind_Speed
23 23 23 23 23 23 23 22 22 22 21 22 24 24 24 24 25 25 25 24 24 24 24 24 24 25 26 25 26 26 25 24 25 25 27 26 24 26 26 24 21 14 13 22 24 19 18 19 19 21 22 25 29 31 32 34 39 41 40 40 43 44 44
23 23 22 22 23 22 21 21 21 20 20 21 22 23 23 24 24 24 25 24 25 25 22 20 22 25 26 26 26 27 25 24 24 24 26 26 25 26 26 25 23 18 14 18 23 21 21 21 20 21 22 23 26 29 31 32 34 37 37 37 41 45 45
23 23 23 23 23 22 21 20 20 19 19 20 21 21 22 22 23 23 23 23 23 21 18 18 21 24 25 26 25 26 26 25 25 25 25 26 26 25 27 27 25 22 18 19 21 20 20 21 21 22 23 23 24 27 29 30 31 33 34 34 35 40 44
22 23 23 23 23 22 22 22 22 21 21 21 21 20 19 19 19 20 19 19 18 17 16 17 20 22 22 24 25 25 25 26 26 26 26 27 26 25 26 27 25 24 23 22 21 19 20 21 22 23 24 24 23 25 27 29 30 29 31 34 33 33 38
22 22 22 22 22 22 22 22 23 23 23 23 23 22 21 19 19 19 18 18 18 17 18 18 19 20 20 21 24 25 25 26 27 27 27 27 26 25 24 25 25 26 26 24 22 19 17 20 21 21 23 24 23 23 24 26 27 27 28 32 33 32 33
22 22 22 23 22 23 23 23 23 23 23 23 24 24 23 22 21 21 20 19 19 19 20 19 19 21 21 21 23 25 26 27 26 27 28 26 26 25 23 23 24 24 24 24 24 20 14 15 19 20 20 22 23 22 22 20 21 23 25 27 29 33 34
22 22 22 22 23 23 23 23 23 23 23 23 24 24 24 23 22 22 21 21 22 21 21 21 22 23 24 23 24 26 29 29 26 26 28 28 27 25 22 21 22 24 25 23 21 19 14 14 18 19 18 19 21 22 21 18 15 16 21 24 27 29 32
22 22 21 22 22 22 22 23 23 23 23 23 23 24 24 23 22 23 22 22 23 22 24 27 27 28 29 27 26 26 26 28 26 27 31 30 25 22 20 19 19 22 24 20 17 17 14 12 14 15 15 15 16 16 18 21 20 18 18 21 23 24 26
21 21 21 21 21 21 21 21 21 21 22 22 22 22 22 22 23 25 24 23 22 23 28 33 32 32 32 29 27 25 23 25 27 29 28 24 19 18 18 17 17 19 18 16 15 16 15 12 11 13 13 13 16 19 20 21 20 16 15 15 15 18 22
21 21 20 20 20 21 20 19 19 21 22 23 22 21 20 20 22 23 23 23 22 22 26 30 31 30 31 28 25 24 22 23 27 28 26 20 17 18 18 16 17 18 17 14 14 16 16 14 12 13 15 15 21 25 21 17 16 14 12 12 9 11 17
21 21 21 21 21 21 21 22 22 23 24 25 25 24 22 21 21 21 21 22 22 21 22 24 25 25 26 27 26 23 20 21 24 27 27 24 21 19 18 18 17 17 16 14 14 15 16 14 13 14 16 15 18 20 19 20 21 16 13 13 9 6 11
23 23 22 21 22 23 24 25 25 24 25 25 25 24 24 23 22 21 21 21 21 21 20 20 21 21 22 25 25 21 18 18 20 22 24 24 24 23 22 21 20 19 16 15 15 16 16 15 13 15 18 17 15 15 17 20 20 18 18 17 13 9 10
25 24 23 22 22 23 24 26 25 23 23 24 24 23 23 24 24 23 23 22 21 21 20 20 20 19 19 22 24 22 18 17 18 19 20 21 22 23 24 25 25 24 21 19 17 16 16 16 13 13 19 23 20 15 14 14 15 17 19 18 18 18 17
25 25 24 23 23 22 23 24 23 21 20 21 21 21 22 24 25 25 26 25 24 22 22 21 20 19 18 21 25 24 20 18 18 17 18 19 19 20 22 24 26 27 26 25 23 19 18 17 16 15 17 21 22 19 17 16 17 19 20 22 25 23 18
23 24 25 23 21 22 23 24 22 19 19 20 20 20 22 25 27 27 27 28 27 25 23 22 21 20 19 20 25 26 23 20 18 17 17 17 17 19 21 22 24 26 27 28 27 25 22 18 16 17 17 17 20 23 24 22 23 24 24 24 22 17 14
20 21 23 23 20 20 23 24 21 17 17 18 18 19 19 21 27 30 29 28 28 26 24 23 22 21 20 21 25 28 27 24 20 17 17 16 17 18 19 21 24 25 26 27 27 27 26 21 18 18 18 18 19 22 25 23 20 20 19 16 12 11 13
21 19 19 22 21 20 23 25 22 18 17 17 17 18 17 15 19 25 28 28 26 25 24 23 22 22 20 20 26 31 30 27 22 18 17 17 17 18 18 21 24 25 24 24 24 25 26 25 23 20 19 19 18 21 23 21 16 16 17 14 10 8 11
22 21 19 21 25 24 23 24 23 20 18 16 16 16 15 13 14 15 20 24 22 22 22 22 23 23 21 21 26 31 32 28 24 20 19 18 17 18 19 21 22 23 23 22 22 23 25 26 23 20 19 19 19 20 22 22 20 20 20 18 15 13 12
17 20 23 25 28 27 23 24 24 21 18 16 16 15 13 12 12 10 10 15 17 19 21 20 21 23 24 24 27 30 31 29 25 22 21 20 17 19 22 21 20 20 20 19 19 21 24 25 23 20 19 18 18 19 21 23 23 23 21 19 19 17 13
18 21 24 27 27 27 24 23 23 22 19 16 15 14 13 11 10 8 6 7 10 14 18 19 19 20 23 24 26 27 29 29 28 26 24 22 19 21 23 20 19 20 20 18 18 20 22 23 22 21 19 18 17 19 20 22 23 23 22 20 19 18 14
25 22 24 24 24 24 25 23 22 20 18 15 13 12 11 10 10 9 6 5 5 7 10 14 16 17 19 21 23 24 26 27 28 27 26 24 24 24 22 18 17 19 20 20 19 18 18 19 19 18 17 16 17 18 19 21 23 24 23 21 19 17 15
25 21 21 21 20 22 23 21 19 17 14 13 12 10 9 9 10 10 10 8 7 6 6 7 9 11 13 16 18 20 23 25 27 27 27 27 28 26 23 21 19 18 18 18 17 16 16 17 18 19 18 15 15 17 19 21 22 23 23 22 22 20 17
22 19 19 21 21 22 23 19 15 13 11 12 12 10 9 9 9 9 10 10 10 9 8 7 7 7 8 11 13 15 18 20 23 27 29 30 30 29 26 24 23 20 18 17 16 16 16 17 18 18 17 15 14 14 17 19 19 20 22 21 21 21 19
20 18 19 22 23 23 22 18 14 12 11 12 11 8 8 8 7 7 8 9 10 10 10 9 9 8 9 10 12 13 15 16 18 20 21 23 25 27 26 25 24 21 17 16 16 16 17 17 18 17 15 14 13 13 16 18 18 18 20 20 19 19 17
18 18 19 21 21 22 21 17 13 11 12 12 10 7 7 6 3 4 6 8 9 8 9 9 9 10 10 10 10 12 13 14 16 17 18 18 19 19 20 24 24 19 15 16 16 15 15 16 17 18 18 16 16 17 18 20 19 17 18 19 18 16 15
17 18 19 20 22 24 22 15 10 11 13 14 14 12 11 9 6 3 3 4 5 6 7 8 8 8 9 9 9 10 10 11 13 14 15 18 19 17 16 19 22 20 17 16 16 15 16 16 15 17 19 19 20 21 21 21 21 19 18 18 17 15 13
17 18 19 20 22 24 21 15 13 14 13 12 12 13 12 10 8 7 5 4 3 4 4 5 6 6 6 6 8 9 9 10 12 12 11 13 16 16 17 17 19 22 21 19 18 17 16 17 17 18 20 21 21 22 23 23 23 22 19 18 17 15 13
17 18 18 19 20 20 19 17 17 18 17 14 13 12 11 10 9 8 7 6 5 5 5 5 5 4 4 4 4 4 4 6 7 9 9 11 12 15 17 17 18 21 23 21 20 18 17 19 20 22 23 21 20 23 25 25 23 22 21 20 18 14 13
16 17 17 17 17 17 17 17 17 18 17 15 14 13 12 11 10 8 7 7 7 6 4 3 3 3 3 4 3 3 3 3 4 5 6 8 10 12 14 16 17 18 19 20 19 18 20 20 18 19 22 19 19 24 27 26 24 23 22 21 16 13 13
17 17 18 17 17 16 16 17 18 18 16 14 13 13 13 11 10 8 7 7 6 4 3 4 4 4 4 5 4 4 4 4 5 5 6 6 6 7 9 12 14 15 16 20 20 20 23 19 13 15 19 17 17 23 26 24 24 24 22 19 14 12 12
18 18 19 19 19 18 17 18 20 19 16 14 12 12 12 11 9 8 8 6 5 5 6 6 5 4 5 5 4 5 5 5 5 5 5 6 5 4 4 4 8 10 12 17 19 22 25 19 12 14 17 17 20 24 21 20 23 25 22 16 13 13 13
19 20 20 21 21 20 19 20 21 19 17 15 12 10 10 10 8 8 7 6 6 7 8 8 6 6 7 6 5 6 5 5 5 5 5 6 6 5 5 3 1 4 8 13 16 20 24 21 16 15 17 20 23 22 17 16 20 22 20 15 13 15 16
19 21 21 21 22 22 21 20 20 20 18 16 13 9 8 9 10 11 9 9 10 10 9 8 8 7 7 7 6 6 5 4 5 5 5 5 5 5 6 6 4 1 4 8 13 17 20 20 19 19 20 21 22 20 19 17 16 16 16 15 15 16 16
21 22 22 22 23 24 22 20 20 21 19 17 13 10 9 11 12 14 15 15 13 10 8 8 8 7 6 6 5 5 5 5 5 5 6 6 5 4 5 5 4 3 3 5 9 13 16 18 19 21 21 22 21 21 21 17 14 15 17 17 16 16 14
21 22 21 21 22 24 23 20 20 21 20 17 13 10 11 13 14 15 16 15 12 9 7 7 7 6 6 5 6 7 8 7 6 6 6 7 6 5 5 5 5 4 4 5 7 10 13 15 17 18 20 21 20 19 17 13 12 16 20 18 17 18 17
19 20 19 19 22 25 24 20 18 18 18 17 15 14 14 15 14 12 11 11 10 9 8 7 7 8 8 8 9 10 10 9 9 8 8 8 7 6 5 5 5 4 4 4 5 7 10 11 13 15 17 19 19 18 16 15 15 17 18 17 18 20 20

ECMWFFLT1_925_spd_048.txt.gz
Wind_Speed
23 24 24 24 24 24 24 24 24 23 23 23 23 23 24 24 25 26 25 25 27 28 29 30 31 31 31 29 29 29 30 30 29 28 28 29 28 26 25 25 22 14 12 19 24 24 26 27 28 27 24 21 19 19 20 22 22 22 23 24 25 25 25
23 23 23 24 24 24 24 24 24 24 24 24 24 24 23 23 23 25 25 25 27 28 28 28 29 29 29 29 29 30 30 30 30 27 26 27 27 27 27 26 24 19 14 15 20 23 25 26 27 29 28 26 24 23 23 25 27 27 28 30 30 29 29
23 24 24 24 24 24 24 24 25 25 25 25 26 25 25 25 24 24 25 25 26 28 29 29 29 28 27 26 26 27 27 26 27 26 26 28 28 28 28 27 27 24 19 16 18 21 23 23 24 26 27 26 25 24 24 25 29 30 30 30 31 30 30
24 24 24 25 25 25 25 25 25 25 26 26 26 27 26 26 26 26 26 26 25 25 26 27 28 28 28 27 27 28 28 27 26 27 29 31 31 30 29 28 27 27 24 21 19 20 23 23 23 24 25 24 24 24 25 25 28 30 30 30 30 31 30
25 24 25 25 25 25 25 25 24 25 26 26 26 27 27 27 27 28 29 29 28 27 26 25 25 26 26 27 29 30 31 31 31 31 30 30 30 30 30 29 27 27 26 23 20 20 21 21 22 23 24 24 25 24 24 24 27 30 30 29 31 32 32
25 25 25 25 25 26 25 25 25 26 26 26 26 27 27 27 28 28 29 30 30 31 31 30 28 27 26 27 28 28 30 31 32 32 28 25 23 24 26 28 28 28 27 26 24 23 21 19 20 22 23 24 24 24 24 25 27 30 30 29 30 32 32
26 26 26 26 26 26 26 26 26 27 27 27 28 28 28 28 28 28 28 28 29 30 31 33 33 31 28 28 27 26 26 25 25 26 25 23 21 22 24 26 27 27 26 25 25 23 21 20 21 23 23 23 24 25 26 26 26 27 29 29 30 32 33
28 27 27 27 27 27 27 27 27 28 28 28 28 29 29 29 29 29 29 29 29 30 30 31 34 35 34 34 32 29 27 24 21 21 23 23 21 21 23 23 22 24 23 22 21 21 21 21 21 22 23 23 22 22 23 26 25 25 27 29 30 31 32
29 29 29 28 28 29 28 29 30 30 28 28 29 30 30 29 29 28 29 29 29 30 31 31 32 34 36 38 36 33 30 28 25 23 24 24 23 22 22 22 19 19 21 21 20 19 20 18 18 20 21 20 21 23 25 26 25 24 27 29 27 29 29
29 30 30 30 31 31 30 30 31 31 28 27 29 29 29 30 31 30 29 29 29 29 30 32 33 34 36 37 37 36 33 31 29 28 27 27 26 25 23 22 20 19 21 21 19 19 19 16 16 20 22 21 23 27 27 24 21 23 27 24 19 21 26
29 30 30 32 32 32 32 32 31 29 28 28 28 28 29 30 31 31 30 30 30 30 30 31 32 33 34 36 37 38 37 35 34 33 31 30 30 29 27 26 24 22 22 21 19 19 19 16 16 21 24 24 24 26 27 26 24 23 22 17 12 13 19
29 30 31 31 31 32 33 33 31 29 28 28 28 27 28 29 31 33 34 33 32 32 32 30 30 31 32 34 36 38 38 37 36 35 33 32 33 33 31 31 29 27 25 23 20 19 19 20 22 23 24 24 24 24 25 25 24 24 22 18 15 15 18
29 30 30 29 29 31 32 32 31 29 27 27 27 26 26 28 30 33 36 37 36 35 34 32 31 30 30 32 33 34 36 37 38 38 37 36 36 35 34 32 31 30 29 28 26 22 19 19 20 19 19 21 22 22 21 21 22 24 23 21 20 22 25
28 29 29 27 27 29 30 31 31 29 27 27 26 26 26 27 29 32 35 37 37 38 37 35 32 31 31 30 30 31 33 35 37 37 37 36 35 34 33 31 29 27 28 29 28 25 22 22 18 15 14 15 15 14 14 16 21 24 23 23 23 24 23
27 28 28 28 28 28 30 32 32 29 28 28 26 25 24 25 26 28 31 34 35 36 37 36 33 32 32 30 29 29 31 32 34 35 34 33 32 31 31 29 26 24 23 24 25 24 26 27 24 21 20 19 17 16 13 13 16 19 20 21 21 18 17
27 27 28 29 29 28 29 33 33 30 29 28 26 25 24 24 23 23 25 28 31 33 35 35 33 32 32 31 30 29 27 28 31 32 32 31 30 29 28 27 25 22 21 21 21 22 23 24 24 23 23 22 21 20 18 14 13 15 16 15 13 13 15
27 27 28 30 30 29 30 33 34 31 29 28 25 24 24 23 22 22 21 22 25 28 31 32 32 32 32 31 31 30 27 25 26 29 30 29 28 27 26 26 25 22 19 18 18 19 20 19 19 20 20 20 20 20 20 16 15 16 16 13 9 8 12
27 28 28 28 30 31 31 32 33 31 29 28 26 23 22 22 21 21 20 21 22 22 24 28 30 30 31 32 32 31 29 26 25 26 26 26 27 26 26 27 25 22 19 18 17 18 18 18 18 18 19 19 20 20 20 19 19 19 18 15 10 8 10
26 29 30 30 31 32 30 29 31 31 29 27 25 23 20 20 20 20 19 19 19 18 21 24 25 24 26 29 31 30 28 27 26 25 25 24 24 24 26 27 25 21 20 19 17 17 18 18 19 20 20 21 22 22 23 23 23 21 19 18 16 14 10
27 29 31 32 31 30 28 26 29 31 27 21 19 17 13 13 16 17 18 18 16 16 19 21 21 20 21 23 26 28 27 26 25 24 24 24 23 24 26 27 25 22 21 19 18 18 18 19 20 21 21 22 23 24 25 26 26 25 23 22 20 18 14
28 28 29 30 28 26 26 26 28 29 24 20 21 20 15 13 14 14 15 17 16 15 18 19 18 20 20 20 21 24 25 25 23 22 23 25 25 27 28 26 23 23 21 19 19 19 20 20 21 22 22 23 24 25 26 27 27 28 27 25 22 20 17
27 26 26 25 24 23 25 27 28 28 25 24 25 23 20 18 18 18 17 14 15 15 16 18 18 17 16 16 17 19 22 24 22 21 22 25 25 26 26 24 23 22 20 19 20 20 21 21 21 22 23 23 24 25 25 25 26 27 27 26 24 22 19
26 24 22 22 22 23 25 27 27 26 24 26 27 25 23 21 19 19 20 17 13 14 16 19 18 15 11 10 11 12 15 19 21 22 23 23 23 24 24 24 24 23 20 20 21 20 20 21 21 21 21 22 24 25 24 24 24 24 25 25 23 22 21
23 20 18 19 21 23 24 26 26 24 23 25 26 25 24 23 22 19 19 19 17 13 13 15 16 14 12 12 12 12 12 13 16 20 23 23 24 24 23 23 24 23 22 21 21 20 20 21 21 21 21 22 23 23 22 22 21 21 23 24 23 21 20
20 19 17 17 19 21 23 24 24 23 23 25 26 25 24 23 22 21 19 19 18 16 14 13 11 10 11 11 12 12 12 12 13 14 17 21 23 24 24 24 24 23 22 20 20 21 21 21 22 22 22 22 21 20 20 20 20 21 22 22 21 20 17
19 17 15 15 18 19 20 21 22 21 23 26 27 27 25 24 23 21 19 18 17 16 16 15 12 10 10 11 12 12 10 8 9 8 9 12 15 19 22 24 25 24 22 22 22 22 22 23 24 23 22 20 19 19 22 23 23 22 21 21 20 18 15
19 16 12 14 17 19 19 20 20 20 23 27 28 27 26 24 23 22 21 19 17 16 15 15 12 11 10 9 11 11 8 5 6 6 5 5 7 9 12 14 17 18 18 20 21 22 23 25 24 23 22 21 20 21 24 25 24 23 21 21 20 17 13
18 14 12 13 16 17 18 18 19 20 24 26 26 27 26 24 22 23 22 20 18 16 14 12 10 8 7 7 7 6 4 3 4 4 5 5 5 6 8 9 11 12 13 14 14 16 19 22 22 23 23 23 22 23 25 25 24 23 22 21 19 16 13
17 14 14 16 15 15 16 17 19 22 24 24 24 25 24 22 20 21 21 19 17 14 11 10 9 8 7 8 8 7 7 6 6 5 4 5 5 6 7 7 9 10 11 12 11 12 14 17 20 23 23 23 23 23 24 25 23 22 22 20 18 16 15
15 14 15 17 16 16 16 17 20 23 24 23 23 23 22 20 18 18 19 17 14 9 7 9 11 10 10 10 9 9 9 9 8 7 7 6 7 8 8 7 6 7 9 11 12 13 14 14 17 23 23 23 23 22 23 24 24 22 22 21 18 15 15
13 14 15 17 17 18 17 18 20 22 22 22 22 22 22 19 16 16 17 14 9 7 10 12 12 11 11 11 11 11 11 10 10 10 9 9 8 8 10 10 10 9 8 9 11 13 16 16 15 21 25 24 24 23 23 22 21 21 22 22 19 17 16
14 16 17 17 17 19 20 21 21 21 20 20 21 21 21 17 12 13 15 10 7 11 14 14 12 11 12 13 13 13 12 12 12 12 11 11 11 10 11 12 12 12 10 9 9 10 14 16 16 19 25 27 25 24 23 21 21 21 21 19 18 17 17
15 16 18 18 18 19 21 22 21 20 19 20 20 20 19 13 9 12 15 13 13 15 15 14 13 13 13 14 14 14 14 13 14 14 13 13 12 12 11 12 12 12 11 9 9 9 10 13 15 17 23 27 27 26 25 23 22 21 20 18 17 17 17
17 18 19 19 19 21 23 23 21 20 19 20 21 20 16 9 5 9 13 16 17 16 14 14 15 14 15 15 15 15 15 15 15 15 14 14 13 13 12 12 12 12 12 11 10 9 8 8 11 13 19 25 26 25 24 23 22 21 20 19 19 18 18
21 21 20 19 20 23 24 23 22 20 19 20 22 19 13 9 10 13 15 17 19 18 15 14 14 14 15 16 16 16 16 16 16 16 15 15 15 14 13 13 13 12 12 11 11 10 8 6 6 7 14 22 25 24 23 22 22 23 22 21 21 21 20
20 20 19 18 19 22 24 23 21 20 19 20 21 19 17 17 17 17 16 16 18 19 17 15 15 15 16 16 17 18 18 17 17 17 16 15 15 14 14 14 13 12 12 11 10 10 9 6 5 3 6 15 21 23 24 23 23 23 23 23 24 23 23

ECMWFFLT1_925_spd_051.txt.gz
Wind_Speed
24 23 22 22 22 22 22 22 22 23 23 23 24 23 23 23 23 24 24 25 25 25 26 26 26 28 28 27 27 28 28 28 29 29 27 25 23 23 22 20 16 11 12 18 21 24 28 30 31 32 32 32 29 25 22 20 19 17 17 18 19 19 19
23 22 21 22 22 22 22 22 23 23 23 24 24 25 24 24 24 24 24 23 24 24 25 26 27 28 28 27 27 27 27 28 29 30 30 29 26 25 26 24 21 17 14 16 20 23 26 27 29 32 36 37 34 31 30 29 27 24 23 23 23 24 24
22 21 21 22 23 23 23 23 23 23 24 24 25 26 26 26 25 25 25 25 25 25 25 25 27 28 28 29 28 27 25 24 25 25 26 28 28 27 29 29 26 22 19 18 20 24 25 25 25 29 33 36 35 32 30 28 27 24 24 25 26 27 27
21 21 21 22 23 23 23 23 23 23 23 24 25 26 27 27 27 27 28 28 28 27 27 26 27 27 26 27 28 29 28 26 25 24 23 24 25 26 29 30 29 27 25 23 22 24 26 26 25 27 30 32 32 32 29 27 26 24 24 25 26 27 28
22 22 22 22 23 23 23 23 23 23 24 24 24 24 25 26 27 28 29 30 30 30 29 28 28 28 26 25 25 25 26 26 27 26 24 24 24 25 26 27 28 30 30 28 25 25 26 26 26 27 30 31 30 31 30 28 27 26 25 26 27 28 29
24 23 22 23 23 23 24 23 23 24 24 24 24 25 26 26 27 28 28 29 30 30 31 31 31 31 30 28 27 26 24 23 25 26 26 27 27 28 28 27 28 30 31 31 29 27 26 25 25 26 28 30 29 29 28 26 26 26 27 27 29 29 30
24 23 22 23 23 23 23 24 24 24 24 25 26 27 28 28 28 28 29 29 30 30 31 32 33 34 34 33 32 30 28 26 24 25 27 29 31 33 33 32 32 31 30 28 28 28 27 25 24 24 24 26 26 26 27 26 24 25 27 28 29 31 32
23 23 23 23 23 24 24 24 25 25 26 27 28 28 28 28 28 28 29 29 30 30 31 31 32 33 34 35 35 34 33 31 28 26 27 28 29 30 32 32 32 30 26 24 23 23 25 25 24 25 25 25 24 23 24 26 25 24 25 27 29 31 33
23 23 24 24 24 24 25 26 27 27 26 27 27 28 28 28 28 28 28 29 30 31 32 33 34 34 35 35 36 35 35 34 33 31 30 29 27 25 25 26 27 24 21 19 18 19 22 23 22 23 23 22 22 23 25 28 26 25 27 28 29 31 32
25 24 25 26 26 26 26 27 28 27 26 26 26 27 28 29 30 31 30 30 30 31 32 33 35 36 37 37 36 35 34 34 35 36 36 34 30 27 25 23 23 22 20 18 16 16 19 17 17 19 20 20 22 26 28 27 24 24 28 26 22 26 32
27 26 26 26 27 27 28 29 29 28 27 26 26 26 27 28 30 32 32 32 31 32 32 33 35 36 37 37 37 36 36 35 35 37 38 38 36 33 31 28 24 22 21 19 16 16 17 15 15 20 22 23 25 26 27 27 26 25 25 20 14 15 24
27 27 26 25 26 26 28 29 28 27 27 27 26 26 26 27 28 29 32 33 33 34 34 33 34 35 35 37 37 37 37 37 36 36 37 38 38 37 36 34 30 26 23 21 18 17 18 18 18 19 22 24 25 25 26 27 27 26 25 22 17 15 20
27 27 25 25 25 27 28 29 29 27 27 27 27 26 26 27 27 28 30 32 33 35 35 35 34 33 34 36 36 35 37 38 38 38 37 37 37 37 37 37 36 33 29 27 24 21 21 23 22 20 21 22 22 24 26 25 25 27 26 23 21 23 28
27 26 26 25 25 26 28 30 29 28 27 27 28 28 27 27 27 27 29 31 33 35 35 35 34 33 35 35 34 34 35 36 37 38 38 37 37 38 38 37 37 36 33 32 31 28 27 29 29 26 24 24 20 18 20 21 23 25 25 25 27 29 29
26 26 26 25 25 26 29 30 29 27 28 28 28 27 27 27 26 26 27 28 30 33 35 35 34 34 36 35 34 34 35 35 36 36 36 36 36 37 37 38 39 39 37 35 35 33 32 34 35 32 29 27 23 20 19 18 18 19 20 23 25 23 22
25 26 27 27 26 26 29 30 29 27 28 28 28 28 28 27 25 24 25 25 26 28 31 32 32 33 35 36 35 35 34 32 33 34 34 35 35 35 35 37 40 43 42 40 38 36 34 34 35 33 31 28 26 26 25 21 18 17 16 17 16 14 17
25 27 27 27 26 26 28 30 29 28 28 29 29 28 27 26 26 25 24 24 25 25 27 29 29 30 32 33 35 36 34 31 30 31 33 33 33 32 32 33 37 40 42 40 38 36 35 33 33 31 29 27 25 24 24 21 19 17 16 15 11 8 13
27 27 27 27 27 26 28 29 28 27 28 28 27 25 22 18 17 21 22 23 24 24 25 27 27 27 28 30 32 34 32 30 29 30 31 32 31 30 30 31 32 33 35 35 34 34 33 31 31 30 27 25 23 22 22 21 20 18 17 16 12 9 12
26 26 27 27 28 27 27 27 26 26 26 26 25 25 25 21 13 12 16 19 22 24 24 25 24 24 25 27 30 32 30 28 29 31 31 30 28 27 29 32 31 30 30 31 31 32 32 30 29 29 27 25 23 22 21 22 22 21 19 17 15 14 12
25 26 28 27 27 26 23 21 22 24 25 24 23 25 25 23 18 14 13 13 15 18 22 24 22 20 21 23 26 28 28 26 27 30 31 29 27 26 27 28 29 29 29 30 30 30 31 31 29 28 26 25 24 23 23 23 24 24 23 20 18 18 15
26 26 27 27 25 22 18 17 19 24 24 21 22 24 24 22 20 19 17 16 15 16 18 20 22 20 20 20 22 24 25 26 26 27 29 30 31 31 28 25 25 28 29 29 28 28 28 29 29 27 26 25 25 24 24 24 25 26 27 26 24 21 19
26 24 25 25 23 18 16 17 19 22 22 20 21 23 23 22 21 19 19 19 17 17 18 17 17 19 19 20 21 21 20 22 24 25 28 30 31 31 30 25 24 26 27 26 26 26 25 26 27 27 27 26 25 25 25 25 25 25 27 28 28 27 23
24 22 22 23 20 16 16 18 19 21 21 20 21 22 22 22 21 19 19 19 19 18 18 18 17 16 17 18 18 17 13 14 16 19 24 28 28 27 27 25 24 24 24 24 24 24 24 25 27 28 28 27 26 25 25 25 24 25 25 26 27 28 28
22 20 19 20 18 15 16 19 19 20 19 19 21 22 22 22 22 20 18 18 19 20 19 19 19 18 17 15 14 12 11 11 12 13 16 21 25 25 23 23 25 25 23 23 23 23 23 26 27 28 28 29 27 26 24 23 23 23 24 24 24 25 27
22 20 19 18 16 15 17 19 20 20 19 18 20 21 21 22 22 20 18 18 20 21 19 18 18 18 17 14 12 12 12 12 12 12 13 15 20 24 24 23 23 23 22 22 22 22 24 26 27 28 28 28 26 24 23 22 22 22 22 22 23 24 25
20 19 20 17 13 14 18 19 20 19 18 19 22 22 22 23 22 20 19 18 19 20 20 19 18 16 14 11 10 10 10 9 9 8 8 9 11 18 24 25 24 23 22 21 21 22 23 26 28 28 28 26 25 24 24 23 22 22 22 22 23 22 22
19 20 19 14 11 12 16 18 19 18 19 22 23 23 24 24 23 22 21 18 19 21 22 18 14 11 9 8 6 6 4 3 3 4 5 5 4 4 10 15 18 21 21 22 22 23 25 27 28 26 25 25 25 25 25 24 23 22 22 23 23 21 19
25 23 15 10 11 13 13 15 16 18 21 23 23 23 24 23 22 23 22 18 17 19 16 11 8 8 8 8 7 6 6 6 5 6 6 6 6 5 3 4 7 10 12 14 15 16 19 22 24 25 25 25 25 26 26 25 24 24 24 24 23 19 17
22 17 11 11 12 12 13 14 15 18 21 22 21 21 21 21 22 23 18 14 14 13 9 6 8 9 10 11 11 11 12 12 11 10 10 10 10 9 8 6 5 5 6 8 9 11 12 14 15 19 22 22 22 24 26 26 26 25 24 24 22 19 17
14 12 14 14 13 12 12 14 17 19 20 20 19 18 18 19 20 16 11 10 9 7 6 9 11 12 13 13 13 13 14 14 14 13 13 12 12 12 12 12 11 10 10 10 10 11 13 13 13 13 15 18 20 22 24 27 27 25 24 23 21 18 17
11 13 15 15 14 13 13 14 16 18 18 18 18 17 17 17 14 10 8 8 6 6 10 12 11 11 12 12 12 13 13 13 13 13 14 13 13 12 13 14 13 13 13 12 11 11 12 13 14 14 14 16 19 22 23 24 25 24 23 23 22 19 18
13 15 15 14 14 14 15 15 16 17 16 16 17 17 15 13 11 11 7 4 6 11 13 12 11 11 11 11 12 12 12 12 13 13 13 13 13 13 13 14 14 13 13 12 11 11 11 12 13 14 15 16 18 22 23 23 22 23 23 22 21 20 20
13 15 16 15 15 15 16 17 16 15 15 15 16 16 14 9 9 10 8 6 10 13 12 11 11 11 11 11 11 12 12 12 13 13 13 13 13 13 13 13 13 13 13 12 11 11 11 12 13 14 15 16 18 20 23 23 23 24 22 20 18 18 18
16 16 16 16 17 17 17 17 15 14 14 15 15 15 11 4 4 8 10 12 14 14 13 12 11 11 12 12 12 13 13 14 14 14 13 13 13 13 13 13 13 13 14 13 12 12 12 12 12 13 14 15 16 19 22 23 23 23 21 20 19 18 18
20 19 18 17 17 17 18 17 14 13 14 15 16 14 9 5 7 11 14 16 17 15 14 12 11 11 11 12 12 13 13 14 14 14 13 13 14 14 14 14 13 13 13 13 13 13 13 12 13 13 13 14 15 18 21 21 22 24 23 22 22 20 19
19 19 18 17 16 17 18 17 15 13 14 16 17 14 12 13 15 15 15 15 16 16 14 14 13 12 12 12 12 13 13 13 13 14 13 11 12 13 13 14 14 13 13 12 12 12 12 13 13 13 12 14 14 17 22 22 22 24 25 24 24 23 21

ECMWFFLT1_925_spd_054.txt.gz
Wind_Speed
23 24 24 24 23 22 21 20 19 19 19 19 21 21 22 22 22 22 23 23 23 23 23 24 24 25 25 24 23 23 22 22 22 21 21 20 19 19 17 16 15 11 11 16 21 23 26 26 26 28 28 28 29 29 28 27 26 24 21 19 17 16 16
24 24 24 23 22 21 20 20 20 19 19 20 21 22 22 23 23 23 24 24 24 24 24 24 24 25 25 24 23 23 23 23 23 22 22 21 20 22 22 20 18 16 13 13 17 22 26 25 24 28 30 29 28 29 30 30 30 29 27 26 24 23 22
24 24 23 22 21 21 21 20 20 20 20 21 22 23 24 24 24 25 25 25 26 25 25 25 25 25 25 24 24 23 23 23 24 24 24 22 20 20 22 22 22 20 18 16 15 19 24 25 23 26 30 30 29 29 29 30 31 31 30 29 27 25 24
23 23 22 21 21 22 21 21 20 20 21 21 22 24 25 25 25 26 27 27 28 27 27 26 26 26 26 25 25 25 24 24 24 25 26 26 24 22 20 20 21 22 22 19 17 18 22 25 25 27 30 31 30 29 29 29 31 31 31 31 28 26 25
23 22 22 21 21 22 21 21 21 21 21 21 22 23 23 24 24 25 26 27 28 28 28 28 28 29 28 27 26 26 25 24 24 23 24 26 27 26 24 21 20 22 22 21 19 18 20 23 24 27 30 31 30 30 29 28 29 30 31 31 30 28 28
22 22 21 21 21 21 21 21 21 22 22 22 22 22 23 25 25 26 26 26 27 27 28 29 30 30 29 29 29 28 27 26 25 24 23 24 24 26 26 24 24 23 22 22 20 19 19 21 22 25 28 28 27 28 28 27 28 31 31 32 32 31 29
21 20 20 20 20 21 21 22 22 22 23 22 23 23 24 26 26 27 27 28 28 28 29 30 31 31 31 31 31 31 30 29 28 28 27 26 25 24 25 26 25 24 24 23 22 20 19 19 21 24 26 27 25 25 28 28 27 28 31 32 32 31 30
21 19 19 20 21 21 21 22 22 23 23 24 24 25 26 27 27 28 28 28 29 29 29 31 32 32 33 33 34 34 33 33 31 30 30 29 26 25 25 26 25 24 24 23 22 22 21 20 21 22 23 24 23 22 24 26 26 26 27 28 28 29 28
21 20 20 21 21 22 22 22 23 23 22 24 25 26 26 27 28 29 29 30 30 29 30 31 32 33 34 34 35 35 35 34 33 32 32 31 29 27 25 24 24 24 24 23 21 21 21 21 21 21 21 20 20 22 24 27 26 23 24 25 26 28 28
22 22 22 22 22 23 23 24 25 25 24 25 26 27 28 29 30 31 32 32 32 30 31 31 32 33 34 34 35 35 34 33 32 32 33 33 32 31 29 25 22 21 22 22 20 20 21 20 18 19 20 19 21 26 28 29 26 25 26 25 23 26 30
22 22 23 23 23 24 25 26 26 25 25 26 26 27 28 29 31 31 32 34 34 32 32 32 33 33 33 34 34 34 34 33 32 32 32 32 32 32 32 30 26 23 22 20 18 18 19 18 16 20 21 20 21 24 26 27 27 26 26 22 16 17 24
22 23 22 22 23 24 25 26 26 25 26 27 26 26 27 28 30 30 30 32 33 34 33 32 33 33 33 33 34 33 34 34 34 33 32 32 31 32 33 33 32 30 26 23 20 17 17 17 18 21 24 23 22 22 21 23 24 24 24 22 18 16 22
22 22 21 21 22 23 25 25 25 24 25 27 27 26 26 28 29 29 30 31 32 33 33 32 32 32 32 33 33 32 33 34 35 35 33 32 31 31 32 33 35 35 34 31 27 24 22 23 22 23 25 26 24 22 22 21 22 24 25 23 22 24 29
21 21 21 21 21 23 25 25 23 23 24 26 26 25 27 29 29 29 29 30 31 32 33 32 31 31 32 33 32 31 32 32 33 34 33 33 34 34 33 33 34 36 37 37 35 32 30 29 28 27 28 29 26 23 23 22 20 22 23 25 28 31 33
19 20 20 21 21 23 25 24 22 22 25 25 25 26 27 29 30 30 30 28 28 29 31 31 31 31 33 33 32 32 32 32 32 32 32 32 34 36 36 36 37 38 39 39 39 37 34 33 33 31 31 33 30 26 27 28 27 27 25 24 26 28 28
18 19 21 22 22 23 25 23 21 22 24 24 25 26 25 23 24 23 23 26 26 26 27 28 29 30 32 32 33 32 32 30 30 30 31 31 33 35 35 37 40 40 38 38 39 39 35 33 33 32 32 33 32 30 32 31 30 30 27 22 18 17 21
19 21 23 24 23 23 24 24 21 21 23 23 24 23 20 19 21 19 15 17 21 23 24 26 27 29 30 32 32 33 32 29 27 29 31 31 33 33 32 35 39 38 35 35 38 41 40 36 34 35 36 35 34 34 34 31 29 28 26 20 13 10 14
22 23 22 22 22 22 23 25 22 20 21 22 22 20 18 19 19 17 16 15 13 14 18 21 24 27 29 31 31 31 31 30 27 29 31 32 32 30 31 35 36 33 33 34 34 37 40 40 39 38 39 38 36 36 37 34 31 29 25 19 12 10 11
21 22 22 21 22 21 22 24 21 18 18 20 20 17 17 18 18 15 14 15 14 13 13 14 17 21 24 28 30 29 29 28 28 29 33 33 30 28 32 36 33 30 30 31 31 33 36 39 39 39 40 40 39 38 39 37 34 32 27 21 16 14 10
20 22 22 21 21 21 21 21 19 16 17 19 18 16 15 17 18 16 14 13 13 14 14 14 16 16 16 19 24 27 27 26 26 28 32 33 31 31 35 35 29 28 29 29 29 30 31 34 36 38 38 39 38 37 36 35 32 31 29 23 19 18 14
20 21 22 21 20 20 19 18 16 15 16 17 17 15 15 15 17 17 15 13 12 14 15 15 16 17 16 15 17 21 24 24 25 26 27 32 35 37 37 31 26 26 27 27 27 26 26 28 30 32 34 35 35 34 33 31 30 30 29 26 22 20 17
19 19 20 20 19 19 18 15 13 13 15 17 16 15 15 15 15 15 15 14 13 13 15 16 16 17 17 17 17 18 18 20 24 25 22 26 35 38 33 28 26 25 24 25 26 24 23 24 25 27 29 30 31 32 32 31 31 31 31 30 28 26 22
18 17 18 19 19 18 17 14 12 12 14 16 16 15 15 15 14 13 15 16 14 14 16 17 16 16 18 18 19 19 17 15 16 17 15 16 25 33 32 29 26 24 23 23 23 22 21 22 23 24 26 27 29 31 31 31 31 31 31 30 30 30 29
16 14 15 16 17 18 17 14 11 12 14 15 16 17 16 15 15 14 14 15 16 15 16 17 16 17 18 18 18 17 15 13 11 11 11 12 14 22 29 30 27 25 24 22 21 20 20 21 22 24 26 28 30 30 30 29 28 28 29 28 27 28 29
15 15 14 14 15 18 17 13 11 12 13 14 16 17 16 16 16 16 15 15 16 15 15 16 15 16 15 15 14 12 11 9 8 7 9 10 10 12 20 28 28 25 22 21 20 19 19 21 23 26 28 30 29 27 26 26 26 26 26 25 25 25 26
16 16 15 13 15 17 14 11 11 13 14 15 17 17 17 17 17 17 16 16 16 15 14 14 13 12 11 11 10 9 7 5 4 4 5 6 6 6 10 19 24 24 22 21 20 20 21 23 26 27 28 27 25 25 26 26 26 26 25 24 24 24 24
16 16 14 14 14 13 10 10 13 14 15 18 19 19 19 18 18 18 18 18 18 15 12 11 10 9 9 9 8 7 5 4 3 3 4 5 4 4 3 5 13 19 21 20 20 20 22 25 26 24 24 24 23 25 27 27 25 24 24 24 23 22 22
17 18 18 16 12 9 8 10 13 14 16 18 19 20 20 18 18 20 22 21 18 12 8 7 7 7 8 8 6 5 4 5 5 6 7 8 7 6 4 2 2 7 11 13 15 17 18 20 21 21 23 25 25 26 28 27 26 25 24 24 22 20 20
20 18 14 10 7 7 9 11 12 14 17 18 18 18 17 17 19 22 19 13 9 7 5 4 4 5 6 6 7 7 8 8 8 8 9 9 9 9 8 6 5 3 1 2 6 10 13 14 15 17 19 21 23 26 28 26 25 25 24 23 22 22 20
15 10 6 6 6 7 9 11 14 16 16 16 16 15 15 17 19 16 10 6 5 5 2 2 5 7 8 8 9 9 10 10 10 10 10 10 10 10 10 9 8 8 6 4 3 4 7 9 11 12 13 14 16 21 24 24 24 25 24 22 22 21 20
7 7 7 8 8 8 9 11 13 14 14 14 14 13 14 16 15 10 7 6 5 1 4 6 8 9 8 8 9 9 9 9 10 10 11 11 10 9 10 10 9 9 8 6 5 4 4 5 7 10 11 11 12 14 16 19 22 23 22 22 22 21 19
8 8 8 7 7 8 9 10 11 12 12 12 12 12 13 12 10 8 5 4 1 5 8 8 9 9 9 8 9 9 9 9 10 11 11 10 10 10 10 10 9 8 8 7 7 6 6 6 7 8 9 10 11 12 13 15 18 20 21 22 22 21 20
8 9 8 7 6 7 8 9 9 9 9 10 11 11 10 7 6 6 3 2 5 8 9 8 8 8 8 8 8 9 10 10 10 11 10 10 9 10 10 9 8 8 8 8 8 7 7 7 8 8 10 10 11 11 13 14 17 19 21 20 19 19 19
8 8 8 7 6 6 9 9 8 8 9 10 10 11 8 4 1 3 4 5 8 9 8 7 7 7 7 7 8 9 10 10 11 11 11 10 10 9 9 8 9 9 9 9 9 9 8 8 9 9 10 11 11 11 12 14 16 18 20 19 18 18 18
8 7 7 6 6 7 9 9 7 8 9 10 11 10 5 1 2 4 8 9 10 10 9 8 7 7 7 7 8 8 9 10 10 11 12 12 10 10 9 8 9 11 10 9 9 9 9 9 10 10 10 11 11 11 12 13 15 17 20 20 20 19 19
7 6 5 4 5 7 9 9 8 9 10 12 13 10 5 6 9 10 11 11 11 10 9 8 7 7 7 7 7 8 9 9 9 10 12 11 10 10 8 8 10 11 10 9 8 8 9 9 9 10 10 11 12 12 12 13 15 17 20 21 21 21 20

ECMWFFLT1_925_spd_057.txt.gz
Wind_Speed
19 20 20 20 20 20 20 20 19 17 16 16 17 18 18 19 20 21 22 22 22 22 22 23 24 25 25 23 23 23 23 23 22 21 21 20 20 21 21 19 16 12 11 13 16 18 20 21 22 23 22 22 24 25 25 25 24 23 23 23 22 20 17
20 20 20 21 21 21 20 19 18 16 15 16 17 18 18 19 20 21 23 22 23 23 22 23 24 25 25 24 24 24 24 24 24 23 23 22 21 21 21 21 20 18 13 13 17 20 20 19 19 22 23 21 22 24 26 27 27 26 25 25 25 25 23
20 20 21 22 22 22 21 20 19 17 17 17 18 18 19 20 20 22 23 24 24 24 24 24 25 26 26 26 25 26 26 26 25 24 23 23 22 22 21 21 22 22 18 15 17 20 21 20 19 22 24 23 22 23 24 27 29 29 29 28 28 28 27
20 21 22 23 23 22 22 20 19 18 18 18 18 19 19 20 21 23 24 25 26 25 24 25 26 27 27 26 26 27 26 26 26 26 25 24 23 22 22 22 21 22 21 17 17 18 21 21 21 22 24 23 23 24 24 26 29 30 31 32 31 30 30
20 21 22 23 22 22 21 19 19 18 18 18 18 19 19 20 21 22 23 25 26 26 25 26 27 28 27 26 27 27 27 27 27 27 26 25 24 23 23 23 23 24 23 20 18 18 18 19 20 22 23 22 22 25 26 26 28 30 31 32 33 33 32
20 21 22 22 21 19 19 19 19 19 19 19 19 19 20 21 22 23 24 25 26 26 27 27 28 29 28 28 28 29 29 29 28 28 28 27 26 24 23 23 23 24 24 23 22 20 18 18 19 21 23 21 20 23 25 25 28 30 29 29 31 33 33
21 22 21 20 19 19 19 19 19 19 19 19 19 20 21 22 22 23 25 26 27 27 28 29 30 30 30 30 31 32 31 30 30 29 29 29 27 25 24 23 22 21 22 23 23 21 20 19 19 21 23 22 20 21 23 23 24 27 28 27 28 30 32
22 22 20 18 18 19 19 19 20 20 20 20 21 22 22 21 22 23 25 26 28 28 28 30 31 31 32 32 32 33 33 32 32 30 30 30 29 27 26 25 23 22 21 21 21 21 21 20 20 21 23 22 19 19 21 22 21 24 27 27 26 28 30
21 22 21 20 19 19 19 19 21 21 20 21 22 22 23 23 23 24 26 28 29 29 29 30 31 32 33 32 32 33 33 33 32 31 32 32 30 28 27 26 25 23 22 21 20 20 20 19 20 22 22 21 20 20 22 22 22 23 25 25 25 27 28
22 22 23 22 21 20 20 21 23 23 21 22 23 23 24 25 26 27 29 31 33 34 33 32 32 34 33 33 33 33 32 32 31 31 32 33 31 30 29 27 25 23 22 21 19 20 19 18 20 21 21 21 23 24 24 23 22 24 26 24 21 22 26
22 22 23 23 23 22 23 25 26 25 24 24 24 24 24 26 28 30 32 34 35 37 37 34 32 33 33 33 33 32 32 31 30 30 31 32 31 31 31 30 27 26 24 22 20 20 20 20 21 22 23 23 24 24 25 24 22 22 24 21 15 14 19
21 22 22 22 24 24 25 26 26 24 24 24 24 24 24 25 27 28 31 34 35 36 37 34 32 32 32 32 32 31 31 31 31 31 31 31 31 31 31 32 32 31 29 27 23 20 19 20 20 22 25 27 26 24 24 23 21 19 20 19 16 14 18
20 22 22 22 24 24 25 24 24 22 23 24 25 24 23 25 26 27 29 32 34 35 35 34 33 32 31 32 31 30 29 30 30 31 31 31 31 31 31 32 34 34 33 32 30 26 25 24 21 20 21 24 26 25 22 20 19 19 20 19 19 19 25
21 22 22 22 22 23 23 23 22 21 22 23 24 23 23 24 26 28 30 33 35 35 35 34 33 32 31 30 29 28 28 28 29 30 30 31 31 32 33 32 33 34 34 34 33 32 32 32 29 26 23 20 20 21 20 19 19 19 19 19 19 21 26
21 21 21 20 20 22 24 23 21 20 21 23 23 22 22 23 26 29 31 32 31 30 32 33 31 31 32 30 28 28 28 28 28 29 29 30 30 32 33 34 35 36 36 36 35 35 35 35 35 35 32 29 26 24 23 22 22 22 21 21 23 24 26
18 18 19 19 20 22 24 23 20 19 19 21 21 20 21 24 26 25 25 22 18 17 21 27 29 29 29 29 29 29 28 27 28 28 29 29 29 30 31 34 36 37 36 36 36 36 35 33 33 34 34 35 35 32 29 25 25 26 23 20 20 21 23
16 17 19 20 21 22 24 23 19 16 17 18 19 20 21 23 20 17 16 15 14 14 14 17 24 27 27 28 28 28 28 27 26 27 28 29 29 29 30 34 36 34 33 34 35 35 35 32 32 32 31 33 34 34 31 26 23 24 22 17 14 14 18
18 19 20 21 21 20 21 22 18 15 15 17 18 18 19 18 14 12 14 14 13 14 14 13 15 19 22 24 25 26 27 26 25 27 28 29 30 29 30 34 35 31 32 33 32 33 34 33 33 32 32 33 33 32 31 28 26 24 20 16 13 13 16
18 20 20 20 20 19 19 21 20 16 13 14 15 16 16 14 12 12 14 14 13 12 13 14 14 14 15 18 19 21 24 24 25 27 27 28 30 31 34 36 33 29 31 31 31 32 34 34 34 33 34 35 36 35 34 31 30 26 21 18 18 17 14
18 20 21 20 19 19 18 19 19 14 11 12 14 14 14 13 12 12 14 16 14 13 13 15 16 16 16 15 15 17 20 21 23 26 29 30 29 31 36 37 31 29 31 31 30 32 33 34 34 33 33 33 35 38 38 34 32 30 25 22 21 21 16
18 19 21 20 19 18 17 17 17 14 10 12 13 12 12 13 13 13 15 16 15 14 15 15 16 17 16 15 15 17 19 20 20 21 25 30 32 33 36 34 30 30 30 29 29 29 29 31 32 32 32 32 34 37 38 36 34 33 30 27 26 24 20
17 19 21 21 19 17 15 14 14 13 11 11 11 11 12 13 12 13 15 16 14 14 15 15 17 19 18 15 15 17 19 21 23 22 19 22 29 33 35 34 33 29 26 26 27 26 26 27 27 28 29 31 33 35 36 35 34 34 33 32 31 29 25
17 17 19 20 17 15 14 12 11 10 10 10 10 11 11 12 12 13 15 16 15 14 16 17 18 19 18 16 16 17 18 19 20 19 16 14 17 21 25 29 30 26 23 25 25 23 24 25 23 24 26 28 31 33 33 32 33 33 34 34 34 33 31
15 15 15 16 16 15 13 11 9 8 8 8 9 11 12 12 12 13 14 16 16 16 17 18 19 19 19 18 16 15 14 13 14 13 10 10 11 12 15 18 22 24 22 23 23 21 21 22 22 24 25 26 28 28 28 29 30 32 34 34 33 33 31
14 13 12 13 15 16 14 11 8 7 7 8 10 11 12 12 13 13 14 15 16 16 17 18 19 18 17 15 13 12 12 13 13 12 11 11 12 12 11 12 17 23 23 20 20 20 20 21 22 24 25 25 25 24 23 24 26 28 29 28 28 28 27
12 11 11 13 15 16 15 12 9 7 8 9 10 9 11 13 14 14 14 15 16 17 16 17 16 16 14 13 12 11 11 11 10 10 10 11 11 11 10 9 11 18 22 22 22 21 21 22 22 23 23 23 22 22 22 22 22 23 24 24 24 25 25
11 11 11 12 13 15 14 11 8 8 9 11 11 10 12 14 14 14 15 17 18 17 15 14 13 13 12 12 10 8 7 6 6 6 6 6 7 9 8 7 6 10 16 21 22 22 23 23 21 20 20 20 19 21 22 22 22 22 22 23 23 22 23
14 14 13 13 14 13 10 8 8 9 10 12 12 13 15 15 13 13 17 20 20 16 13 11 10 10 9 8 7 6 4 3 2 2 2 2 3 4 5 5 5 5 7 11 15 17 19 20 20 19 19 19 20 21 22 23 23 23 23 23 20 20 20
15 15 15 15 14 10 6 7 9 11 12 13 13 14 15 14 12 13 18 18 14 8 7 7 6 6 5 4 3 2 1 2 2 2 2 2 2 2 3 3 3 3 2 2 5 8 11 13 15 17 17 18 19 21 23 23 22 23 23 22 20 20 21
17 18 15 12 8 6 6 8 11 12 13 14 13 13 13 12 12 15 15 12 8 4 4 4 3 2 1 1 2 3 4 5 5 5 5 5 5 5 5 5 5 6 6 4 1 2 5 7 9 11 12 13 14 16 18 19 21 24 24 21 19 22 24
15 12 9 5 3 4 6 9 11 13 13 12 12 11 11 11 13 13 10 7 6 5 3 2 2 2 2 3 4 5 5 5 5 6 6 6 6 6 6 6 7 7 7 6 4 3 1 3 5 7 9 10 12 13 14 14 16 20 23 22 20 23 25
6 3 2 3 5 6 8 9 10 11 11 10 10 10 10 11 10 7 4 5 5 2 3 4 4 4 4 4 5 6 6 5 5 5 6 5 5 5 6 7 7 7 7 5 5 5 3 2 2 3 5 7 9 11 13 13 13 15 19 21 20 21 23
2 2 3 5 5 6 8 9 9 9 9 9 9 9 9 8 5 3 4 5 4 4 6 5 5 5 5 5 5 6 5 5 6 6 6 6 5 5 5 5 5 6 6 5 5 5 4 4 3 3 4 5 7 8 10 11 12 13 15 16 17 18 19
4 4 4 4 4 5 6 6 7 7 6 7 8 8 7 5 5 3 3 1 3 5 5 4 4 5 5 5 5 6 6 6 6 7 8 8 7 6 6 4 4 5 6 7 6 5 4 4 4 4 5 5 6 7 8 10 10 11 13 14 14 15 16
8 6 4 3 3 3 4 4 4 4 4 5 6 6 5 6 7 4 1 3 4 5 5 4 4 4 4 4 5 5 6 7 7 8 9 10 10 9 7 5 4 5 7 7 6 5 5 5 5 5 5 6 6 7 7 8 9 10 12 14 14 15 15
7 5 3 3 2 2 3 3 2 2 3 5 6 4 3 4 4 5 5 6 6 5 5 5 4 3 3 3 4 5 6 7 7 8 9 10 10 10 9 7 6 7 8 9 8 7 6 6 6 6 6 6 7 8 9 9 10 11 12 13 14 16 16

ECMWFFLT1_925_spd_060.txt.gz
Wind_Speed
19 19 19 19 19 19 19 19 19 18 18 17 18 18 18 18 18 18 19 19 19 19 19 20 21 23 24 23 23 23 23 23 23 23 22 22 21 21 20 19 17 13 10 12 15 17 19 19 20 20 19 18 19 21 21 21 21 20 20 19 17 16 14
20 19 19 20 20 20 20 20 20 19 18 17 17 17 17 17 17 18 19 19 20 20 20 20 22 23 24 23 24 24 25 25 24 24 24 23 22 22 21 20 20 17 12 12 15 16 16 18 21 23 21 18 18 21 22 23 24 23 22 22 21 20 19
20 19 20 20 21 21 20 21 20 20 19 19 19 19 18 18 18 19 19 19 20 20 19 20 22 24 24 23 24 25 26 26 26 26 25 25 24 23 23 22 22 21 17 14 16 17 16 16 17 21 23 20 19 21 21 23 25 25 25 25 24 24 23
20 20 20 21 21 21 21 21 21 21 21 20 20 20 20 20 21 21 21 21 22 22 21 22 23 24 24 23 24 26 27 27 27 27 27 27 26 25 24 23 22 22 20 17 17 17 17 15 15 18 20 20 20 20 20 22 23 24 26 28 27 27 26
21 21 21 21 21 21 22 22 21 21 21 19 18 18 19 19 20 21 21 22 23 23 22 23 24 25 24 23 25 27 27 27 27 28 28 28 27 26 25 24 23 23 22 21 19 18 18 18 17 17 18 18 19 20 20 21 23 24 25 27 28 28 28
22 22 21 21 21 22 22 22 21 20 19 18 17 18 19 19 19 20 21 23 24 24 24 24 25 25 25 25 26 28 28 28 28 28 28 29 29 28 26 25 24 23 23 23 22 20 20 21 20 19 18 17 17 19 20 21 23 23 23 23 25 27 27
22 22 22 22 22 22 22 22 20 19 18 17 17 18 19 19 19 19 20 22 24 25 25 26 26 26 26 26 28 29 29 29 28 28 29 30 30 29 27 26 25 24 23 23 22 21 20 21 21 21 21 19 17 18 20 20 20 20 19 20 22 24 26
23 22 22 22 22 22 21 20 19 19 19 19 19 20 19 19 18 19 20 21 23 24 25 25 26 26 27 27 28 29 30 30 29 29 29 31 30 29 28 27 25 24 23 22 21 20 19 19 20 20 21 19 18 19 20 18 17 19 21 21 21 22 23
23 23 23 22 23 23 21 19 19 19 20 20 21 21 20 19 19 20 20 21 23 24 25 25 25 25 26 27 28 29 30 30 30 29 30 31 30 28 28 27 26 24 22 21 19 18 17 17 18 19 18 18 19 21 20 18 18 20 21 20 21 22 22
23 23 23 23 24 24 23 23 22 20 20 21 21 21 21 20 21 21 22 24 26 26 26 27 27 27 28 28 29 30 31 31 29 29 31 32 30 29 28 27 25 24 24 21 19 18 18 16 16 18 19 20 22 22 21 20 20 21 21 18 18 22 25
23 23 24 24 25 25 25 26 25 23 22 22 21 21 22 22 23 24 25 27 29 29 29 29 29 30 30 30 31 31 31 31 30 29 30 31 30 30 29 28 27 26 25 23 20 19 19 17 17 20 21 22 22 21 22 23 23 22 21 16 13 16 20
24 24 24 24 25 26 26 27 26 24 24 24 23 23 23 23 23 23 24 28 30 31 32 31 31 31 31 31 31 31 31 30 30 29 29 30 30 29 30 31 30 29 27 25 23 21 20 20 20 20 22 22 21 22 23 24 24 24 21 17 15 15 17
23 24 24 24 25 26 27 28 27 25 24 24 24 23 23 23 23 23 24 25 27 30 31 31 31 30 30 31 31 31 30 30 29 29 28 29 30 30 30 31 32 32 30 29 27 24 24 26 24 21 21 21 21 23 25 24 24 24 22 20 20 19 18
24 25 25 24 25 26 27 28 27 24 24 24 23 23 22 22 23 23 25 27 28 30 31 31 30 29 30 30 29 29 30 29 29 28 28 28 29 31 31 30 31 33 32 32 31 29 29 31 29 26 24 21 19 21 23 23 23 23 22 21 21 20 19
24 25 24 24 25 26 28 28 25 22 22 23 22 22 22 22 23 24 26 28 29 31 32 32 32 31 31 30 29 29 29 29 29 28 27 28 29 30 30 30 32 34 34 32 32 33 35 35 33 31 30 27 24 22 21 21 21 20 19 18 18 19 19
23 24 23 23 23 23 25 26 23 21 22 22 22 22 21 21 22 23 25 27 28 30 30 28 24 22 24 27 27 27 27 28 28 27 27 28 28 28 29 30 31 32 32 32 32 33 35 36 35 34 32 31 29 26 24 24 23 22 19 16 16 16 18
21 21 20 20 20 21 24 25 23 21 21 21 21 21 20 20 20 21 24 26 26 24 20 15 10 9 12 19 23 24 24 24 25 26 27 28 28 27 28 30 30 29 29 30 30 31 31 32 33 32 30 30 29 28 27 25 23 22 20 15 12 10 14
19 20 20 20 22 22 23 25 24 20 19 20 20 20 19 19 19 20 22 22 19 16 12 11 11 9 10 13 16 18 20 20 22 26 27 28 28 26 28 31 31 29 29 28 28 29 29 29 30 30 29 29 28 27 27 26 25 24 21 16 12 10 13
20 21 21 21 22 21 21 23 24 19 17 18 19 19 18 18 19 18 18 15 12 11 10 10 12 13 13 14 15 15 18 19 20 24 28 30 28 26 29 33 32 28 28 28 29 29 30 30 30 30 30 29 29 28 27 28 29 29 26 20 16 16 13
17 18 19 19 20 21 21 23 23 20 16 17 18 18 18 18 17 14 12 11 10 10 10 10 12 14 15 16 17 17 18 19 20 21 23 26 29 30 32 34 31 30 30 29 28 29 29 29 29 30 30 29 29 29 29 29 30 30 29 25 21 20 16
15 17 19 20 21 22 22 22 22 19 16 15 17 17 18 17 13 10 10 11 11 11 11 11 13 15 15 15 15 16 17 18 20 21 21 21 23 28 31 32 31 31 31 29 28 28 27 27 27 28 29 29 29 29 30 31 31 31 31 27 24 22 17
17 18 20 21 21 21 21 20 19 18 15 13 14 16 16 14 10 8 10 12 13 13 13 12 13 15 16 15 15 16 16 16 18 21 22 21 19 19 21 26 32 33 28 26 27 26 25 25 25 26 28 29 30 31 31 31 32 34 34 32 28 24 18
18 18 19 20 20 20 19 17 15 14 12 11 11 13 13 11 9 9 11 13 14 14 13 13 14 17 18 17 17 17 17 17 19 19 16 14 14 13 13 16 22 27 28 27 25 24 24 24 24 25 27 29 31 32 32 32 32 33 35 35 34 31 26
16 16 16 16 16 17 17 14 12 10 10 10 10 11 10 9 9 10 11 13 15 15 14 14 15 17 18 18 18 18 18 16 16 13 11 12 15 17 17 16 14 16 22 25 24 23 25 26 26 26 27 29 30 29 29 31 32 32 34 34 35 35 33
14 14 13 12 13 15 15 12 10 8 7 8 8 8 7 8 10 11 12 13 14 15 15 15 16 17 18 19 19 17 15 13 12 12 13 16 18 18 18 16 13 11 14 21 23 23 25 27 28 28 29 29 27 23 22 24 26 29 31 32 33 34 35
13 13 12 11 12 15 14 10 7 6 6 7 8 7 8 9 10 11 12 13 14 14 15 16 17 17 18 18 16 14 12 13 15 16 16 16 15 14 13 12 11 10 10 16 22 23 24 26 27 27 26 25 22 20 19 20 21 24 26 28 28 29 30
13 12 11 11 12 14 13 10 7 5 6 7 7 7 7 8 9 10 11 12 13 14 15 16 16 15 14 14 13 12 12 13 14 14 14 12 11 10 9 9 10 10 10 11 15 19 23 25 24 21 20 21 21 21 21 20 20 21 22 24 26 25 25
15 14 13 13 12 12 10 10 8 7 7 7 8 9 9 9 11 13 12 12 15 16 17 17 15 12 11 11 11 10 10 10 10 10 10 9 8 7 6 6 7 8 9 9 10 13 17 19 20 19 20 20 21 22 22 21 21 21 20 22 23 22 21
19 19 18 17 14 11 9 10 10 9 8 9 10 11 12 13 14 13 10 11 15 16 14 12 10 9 8 7 6 6 6 7 7 7 6 6 5 5 4 3 3 4 5 6 7 8 10 12 15 18 20 20 21 22 22 21 21 22 21 20 20 20 19
20 19 18 17 16 13 11 11 11 9 9 10 11 12 12 12 11 9 9 12 14 11 7 6 6 5 4 4 3 3 3 3 4 4 3 3 3 2 2 1 2 3 3 3 3 4 5 6 8 11 15 18 20 21 21 21 22 23 22 20 18 16 18
21 20 20 21 21 16 10 9 9 9 10 11 11 11 10 9 9 9 10 10 8 5 4 4 5 4 3 3 3 2 2 2 1 2 3 2 2 1 1 2 3 5 5 5 4 3 3 3 3 4 7 10 13 15 16 17 20 21 21 21 19 17 18
19 19 16 14 14 12 7 5 7 9 10 10 9 8 8 8 9 9 7 5 3 2 2 3 5 5 3 3 3 3 1 1 0 1 3 3 2 2 2 3 4 5 6 6 5 5 4 3 3 3 3 4 7 8 9 11 14 15 16 17 18 19 20
7 5 4 4 5 5 4 4 7 8 8 8 7 7 7 7 5 4 4 5 7 7 5 5 7 6 5 4 4 3 2 1 0 1 2 3 3 3 4 3 3 4 6 6 6 5 4 4 4 3 3 3 4 5 6 8 11 13 14 13 14 16 18
3 2 2 3 3 3 3 5 7 6 6 6 6 6 7 6 4 4 5 6 6 7 8 8 8 7 6 5 4 3 2 1 0 2 2 3 3 3 4 3 2 2 5 6 6 5 4 4 3 3 4 4 4 4 5 6 8 10 11 12 13 13 15
8 5 5 5 5 5 4 4 5 5 4 4 4 5 6 7 8 8 6 3 4 6 7 7 7 6 5 4 4 3 1 1 0 1 3 3 4 4 3 2 2 2 5 7 6 5 4 4 4 4 4 4 5 5 5 6 6 7 8 10 11 12 13
9 7 6 5 4 3 2 1 2 2 1 2 3 6 7 7 7 6 3 3 4 5 5 5 5 5 5 4 3 3 2 1 0 2 3 3 4 4 3 2 2 4 6 7 6 5 4 4 4 4 4 5 5 6 6 6 6 6 7 8 10 11 12